EN

Hourly Weather Sheffield

Today, 27 October, Tuesday

Time Temperature Precipitation Wind Pressure Humidity
00:00 +6°C° 0 mm 5 mps 740 mmHg 87%
01:00 +6°C° 0 mm 4 mps 740 mmHg 88%
02:00 +6°C° 0 mm 4 mps 740 mmHg 88%
03:00 +6°C° 0 mm 4 mps 740 mmHg 88%
04:00 +6°C° 0 mm 4 mps 739 mmHg 89%
05:00 +5°C° 0 mm 4 mps 739 mmHg 89%
06:00 +5°C° 0 mm 4 mps 739 mmHg 89%
07:00 +5°C° 0.1 mm 4 mps 739 mmHg 89%
08:00 +6°C° 0.1 mm 4 mps 739 mmHg 88%
09:00 +7°C° 0.1 mm 5 mps 738 mmHg 88%
10:00 +7°C° 0.7 mm 5 mps 737 mmHg 90%
11:00 +7°C° 0.7 mm 5 mps 736 mmHg 91%
12:00 +8°C° 0.7 mm 6 mps 736 mmHg 93%
13:00 +9°C° 0.4 mm 6 mps 735 mmHg 91%
14:00 +10°C° 0.4 mm 6 mps 734 mmHg 90%
15:00 +11°C° 0.4 mm 6 mps 734 mmHg 88%
16:00 +9°C° 0.1 mm 6 mps 734 mmHg 85%
17:00 +8°C° 0.1 mm 6 mps 735 mmHg 81%
18:00 +7°C° 0.1 mm 5 mps 735 mmHg 77%
19:00 +7°C° 0 mm 5 mps 736 mmHg 78%
20:00 +6°C° 0 mm 5 mps 737 mmHg 78%
21:00 +6°C° 0 mm 5 mps 738 mmHg 79%
22:00 +5°C° 0 mm 6 mps 738 mmHg 80%
23:00 +5°C° 0 mm 6 mps 738 mmHg 81%

Tomorrow, 28 October, Wednesday

Time Temperature Precipitation Wind Pressure Humidity
00:00 +5°C° 0 mm 6 mps 739 mmHg 81%
01:00 +5°C° 0 mm 6 mps 739 mmHg 82%
02:00 +5°C° 0 mm 6 mps 739 mmHg 82%
03:00 +5°C° 0 mm 6 mps 739 mmHg 82%
04:00 +5°C° 0 mm 6 mps 739 mmHg 82%
05:00 +5°C° 0 mm 6 mps 739 mmHg 83%
06:00 +5°C° 0 mm 6 mps 739 mmHg 83%
07:00 +5°C° 0 mm 6 mps 739 mmHg 81%
08:00 +7°C° 0 mm 6 mps 740 mmHg 80%
09:00 +7°C° 0 mm 6 mps 740 mmHg 78%
10:00 +8°C° 0 mm 7 mps 740 mmHg 75%
11:00 +8°C° 0 mm 7 mps 740 mmHg 71%
12:00 +9°C° 0 mm 8 mps 740 mmHg 68%
13:00 +9°C° 0.2 mm 7 mps 740 mmHg 69%
14:00 +9°C° 0.2 mm 7 mps 741 mmHg 70%
15:00 +8°C° 0.2 mm 7 mps 741 mmHg 71%
16:00 +8°C° 0 mm 6 mps 741 mmHg 73%
17:00 +7°C° 0 mm 6 mps 741 mmHg 75%
18:00 +6°C° 0 mm 5 mps 742 mmHg 77%
19:00 +5°C° 0 mm 6 mps 743 mmHg 78%
20:00 +5°C° 0 mm 6 mps 743 mmHg 78%
21:00 +5°C° 0 mm 6 mps 744 mmHg 79%
22:00 +5°C° 0 mm 6 mps 745 mmHg 79%
23:00 +5°C° 0 mm 6 mps 745 mmHg 79%

Day after tomorrow, 29 October, Thursday

Time Temperature Precipitation Wind Pressure Humidity
00:00 +5°C° 0 mm 6 mps 746 mmHg 79%
01:00 +5°C° 0 mm 6 mps 746 mmHg 78%
02:00 +5°C° 0 mm 6 mps 747 mmHg 78%
03:00 +4°C° 0 mm 6 mps 748 mmHg 78%
04:00 +5°C° 0 mm 5 mps 748 mmHg 78%
05:00 +5°C° 0 mm 5 mps 749 mmHg 79%
06:00 +5°C° 0 mm 4 mps 750 mmHg 79%
07:00 +6°C° 0 mm 4 mps 750 mmHg 79%
08:00 +6°C° 0 mm 4 mps 751 mmHg 79%
09:00 +7°C° 0 mm 4 mps 751 mmHg 79%
10:00 +7°C° 0.2 mm 5 mps 751 mmHg 82%
11:00 +8°C° 0.2 mm 5 mps 751 mmHg 84%
12:00 +8°C° 0.2 mm 5 mps 751 mmHg 87%
13:00 +9°C° 0.4 mm 6 mps 751 mmHg 87%
14:00 +9°C° 0.4 mm 6 mps 751 mmHg 87%
15:00 +10°C° 0.4 mm 7 mps 751 mmHg 88%
16:00 +10°C° 0 mm 7 mps 751 mmHg 87%
17:00 +10°C° 0 mm 6 mps 751 mmHg 87%
18:00 +11°C° 0 mm 6 mps 751 mmHg 87%
19:00 +11°C° 0 mm 6 mps 751 mmHg 87%
20:00 +11°C° 0 mm 6 mps 751 mmHg 87%
21:00 +11°C° 0 mm 6 mps 751 mmHg 87%
22:00 +11°C° 0 mm 7 mps 750 mmHg 86%
23:00 +11°C° 0 mm 7 mps 750 mmHg 85%

30 October, Friday

Time Temperature Precipitation Wind Pressure Humidity
00:00 +11°C° 0 mm 7 mps 750 mmHg 85%
01:00 +11°C° 0 mm 8 mps 750 mmHg 85%
02:00 +12°C° 0 mm 8 mps 750 mmHg 85%
03:00 +12°C° 0 mm 8 mps 750 mmHg 86%
04:00 +12°C° 0 mm 8 mps 750 mmHg 86%
05:00 +12°C° 0 mm 8 mps 750 mmHg 86%
06:00 +13°C° 0 mm 8 mps 750 mmHg 87%
07:00 +13°C° 0 mm 8 mps 750 mmHg 86%
08:00 +13°C° 0 mm 8 mps 750 mmHg 86%
09:00 +15°C° 0 mm 7 mps 750 mmHg 85%
10:00 +15°C° 0 mm 7 mps 751 mmHg 82%
11:00 +15°C° 0 mm 7 mps 752 mmHg 78%
12:00 +15°C° 0 mm 7 mps 752 mmHg 75%
13:00 +15°C° 0 mm 6 mps 753 mmHg 74%
14:00 +14°C° 0 mm 5 mps 753 mmHg 74%
15:00 +14°C° 0 mm 4 mps 754 mmHg 74%
16:00 +13°C° 0 mm 3 mps 754 mmHg 76%
17:00 +14°C° 0 mm 2 mps 754 mmHg 78%
18:00 +13°C° 0 mm 1 mps 755 mmHg 80%
19:00 +13°C° 0 mm 1 mps 755 mmHg 81%
20:00 +13°C° 0 mm 1 mps 755 mmHg 82%
21:00 +12°C° 0 mm 0 mps 755 mmHg 84%
22:00 +13°C° 0.3 mm 1 mps 755 mmHg 87%
23:00 +13°C° 0.3 mm 1 mps 755 mmHg 89%

31 October, Saturday

Time Temperature Precipitation Wind Pressure Humidity
00:00 +12°C° 0.3 mm 2 mps 754 mmHg 92%
01:00 +12°C° 0.3 mm 3 mps 754 mmHg 92%
02:00 +12°C° 0.3 mm 4 mps 753 mmHg 92%
03:00 +13°C° 0.3 mm 5 mps 753 mmHg 93%
04:00 +13°C° 0 mm 5 mps 752 mmHg 92%
05:00 +13°C° 0 mm 6 mps 751 mmHg 91%
06:00 +13°C° 0 mm 6 mps 751 mmHg 90%
07:00 +12°C° 0 mm 7 mps 750 mmHg 89%
08:00 +14°C° 0 mm 7 mps 750 mmHg 87%
09:00 +13°C° 0 mm 8 mps 749 mmHg 85%
10:00 +13°C° 0 mm 9 mps 748 mmHg 82%
11:00 +15°C° 0 mm 9 mps 748 mmHg 78%
12:00 +14°C° 0 mm 10 mps 747 mmHg 74%
13:00 +14°C° 0.1 mm 10 mps 746 mmHg 76%
14:00 +14°C° 0.1 mm 10 mps 745 mmHg 78%
15:00 +13°C° 0.1 mm 10 mps 744 mmHg 80%
16:00 +13°C° 0.3 mm 10 mps 744 mmHg 79%
17:00 +12°C° 0.3 mm 10 mps 743 mmHg 78%
18:00 +12°C° 0.3 mm 10 mps 743 mmHg 77%
19:00 +11°C° 0.1 mm 10 mps 744 mmHg 77%
20:00 +11°C° 0.1 mm 9 mps 745 mmHg 76%
21:00 +10°C° 0.1 mm 8 mps 746 mmHg 75%
22:00 +10°C° 0 mm 7 mps 747 mmHg 77%
23:00 +9°C° 0 mm 7 mps 747 mmHg 79%

1 November, Sunday

Time Temperature Precipitation Wind Pressure Humidity
00:00 +9°C° 0 mm 6 mps 748 mmHg 80%
01:00 +9°C° 0 mm 7 mps 747 mmHg 81%
02:00 +9°C° 0 mm 7 mps 747 mmHg 83%
03:00 +10°C° 0 mm 8 mps 746 mmHg 84%
04:00 +10°C° 0.1 mm 8 mps 746 mmHg 84%
05:00 +11°C° 0.1 mm 9 mps 745 mmHg 84%
06:00 +12°C° 0.1 mm 10 mps 744 mmHg 84%
07:00 +12°C° 0.1 mm 10 mps 744 mmHg 84%
08:00 +12°C° 0.1 mm 10 mps 744 mmHg 84%
09:00 +12°C° 0.1 mm 11 mps 744 mmHg 84%
10:00 +13°C° 0.1 mm 11 mps 743 mmHg 84%
11:00 +13°C° 0.1 mm 11 mps 743 mmHg 84%
12:00 +14°C° 0.1 mm 11 mps 743 mmHg 83%
13:00 +14°C° 0 mm 11 mps 742 mmHg 83%
14:00 +16°C° 0 mm 11 mps 742 mmHg 83%
15:00 +16°C° 0 mm 10 mps 741 mmHg 83%
16:00 +16°C° 0.1 mm 10 mps 742 mmHg 84%
17:00 +16°C° 0.1 mm 9 mps 742 mmHg 84%
18:00 +16°C° 0.1 mm 8 mps 742 mmHg 85%
19:00 +16°C° 0.3 mm 8 mps 742 mmHg 86%
20:00 +16°C° 0.3 mm 8 mps 743 mmHg 87%
21:00 +16°C° 0.3 mm 8 mps 743 mmHg 88%
22:00 +15°C° 0.4 mm 7 mps 744 mmHg 87%
23:00 +14°C° 0.4 mm 5 mps 744 mmHg 87%
Show more